Terminal Aerodrome Forecast
Issued by NWS Greer, SC

Home | Current Version | Previous Version | Text Only | Print | Product List | Glossary On
Versions: 1 2 3 4 5 6 7 8 9 10 11 12 13 14 15 16 17 18 19 20 21 22 23 24 25 26 27 28 29 30 31 32 33 34 35 36 37 38 39 40 41 42
000
FTUS42 KGSP 300100 AAA
TAFCLT
TAF AMD
KCLT 300137Z 3002/3024 09006KT P6SM FEW060 SCT250
     FM301000 00000KT 5SM BR SCT015
     FM301300 00000KT P6SM FEW040
     FM301900 16006KT P6SM FEW060=

USA.gov is the U.S. government's official web portal to all federal, state and local government web resources and services.